Location: Invercargill
(46.4000°S, 168.3500°E)
Time: 18:19:52
(UTC+12:00)

ADEOS - Pass Details

Date: 14 May 2021
Orbit: 792 x 795 km, 98.9° (Epoch: 14 June)

Event Time Altitude Azimuth Distance (km) Brightness Sun altitude
Rises 18:00:59 0° 166° (SSE) 3,339 6.5 -6.5°
Reaches altitude 10° 18:03:20 10° 166° (SSE) 2,403 5.8 -6.9°
Maximum altitude 18:08:39 85° 253° (WSW) 816 3.7 -7.7°
Drops below altitude 10° 18:13:55 10° 341° (NNW) 2,373 6.6 -8.6°
Sets 18:16:14 0° 341° (NNW) 3,295 7.3 -9.0°
